Regional Weather Roundup
Issued by NWS Little Rock, AR

Home | Current Version | Previous Version | Text Only | Print | Product List | Glossary Off
Versions: 1 2 3 4 5 6 7 8 9 10 11 12 13 14 15 16 17 18 19 20 21 22 23 24 25 26 27 28 29 30 31 32 33 34 35 36 37 38 39 40 41 42 43 44 45 46 47 48 49 50

000
ASUS44 KLZK 231905
RWRLZK

WEATHER ROUNDUP FOR ARKANSAS
NATIONAL WEATHER SERVICE LITTLE ROCK AR
100 PM CST MON JAN 23 2017

NOTE: "FAIR" INDICATES FEW OR NO CLOUDS BELOW 12,000 FEET WITH NO
SIGNIFICANT WEATHER AND/OR OBSTRUCTIONS TO VISIBILITY.

ARZ001-003-010-029-232000-
NORTHWEST ARKANSAS

CITY           SKY/WX    TMP DP  RH WIND       PRES   REMARKS
FAYETTEVILLE   SUNNY     50  36  58 VRB6      29.88F
FORT SMITH     SUNNY     52  35  52 W10       29.91F
HARRISON       SUNNY     47  36  65 NW8       29.87S
BENTONVILLE    SUNNY    N/A N/A N/A NW7       29.88F
ROGERS         SUNNY     48  35  60 CALM      29.88F
SILOAM SPGS    SUNNY     48  36  61 NW3       29.88F
HIGHFILL       SUNNY     50  37  61 W6        29.88F
SPRINGDALE     SUNNY     48  36  61 CALM      29.90F
$$

ARZ004-005-016-232000-
NORTH CENTRAL ARKANSAS

CITY           SKY/WX    TMP DP  RH WIND       PRES   REMARKS
BATESVILLE     SUNNY     52  36  54 NW9       29.84S
FLIPPIN        MOSUNNY   48  34  57 N9G17     29.84F
MTN HOME       MOSUNNY   49  36  61 MISG      29.84F
$$

ARZ040-041-232000-
WEST CENTRAL ARKANSAS

CITY           SKY/WX    TMP DP  RH WIND       PRES   REMARKS
MENA           SUNNY     59  34  38 N5        29.88F
MOUNT IDA      SUNNY     55  33  43 VRB3      29.85F
$$

ARZ009-017-025-026-028-232000-
NORTHEAST ARKANSAS

CITY           SKY/WX    TMP DP  RH WIND       PRES   REMARKS
CORNING        MOCLDY    52  37  58 NW12G18   29.81F
JONESBORO      MOSUNNY   51  38  60 NW12G18   29.79F
NEWPORT        SUNNY     53  38  56 N14         N/A
WALNUT RIDGE   SUNNY     54  36  50 NW14      29.80F
BLYTHEVILLE    CLOUDY    51  40  65 N15       29.80F
$$

ARZ022-023-033-042-044-232000-
CENTRAL ARKANSAS

CITY           SKY/WX    TMP DP  RH WIND       PRES   REMARKS
LITTLE ROCK    MOSUNNY   54  38  54 NW9       29.85F
N LITTLE ROCK    N/A     52  39  61 N7        29.87F
JACKSONVILLE   SUNNY     55  40  58 NW9       29.84F
SEARCY         SUNNY     53  40  61 NW5       29.86F
HOT SPRINGS    SUNNY     56  36  47 VRB3      29.86F
RUSSELLVILLE   SUNNY     52  36  54 VRB6G16   29.87F
CLINTON        FAIR      54  36  50 NW12      29.86F
$$

ARZ036-232000-
EAST ARKANSAS

CITY           SKY/WX    TMP DP  RH WIND       PRES   REMARKS
WEST MEMPHIS   CLOUDY    47  39  74 NW9G17    29.82S
$$

ARZ050-053-066-070-073-232000-
SOUTHWEST ARKANSAS

CITY           SKY/WX    TMP DP  RH WIND       PRES   REMARKS
ARKADELPHIA    FAIR      55  38  52 NW5       29.87F
CAMDEN         SUNNY     57  34  41 CALM      29.88F
TEXARKANA      SUNNY     55  37  50 VRB6      29.90F
EL DORADO        N/A    N/A N/A N/A MISG      29.88F
DE QUEEN       SUNNY     60  37  42 W7        29.88F
$$

ARZ056-057-069-232000-
SOUTHEAST ARKANSAS

CITY           SKY/WX    TMP DP  RH WIND       PRES   REMARKS
PINE BLUFF     SUNNY     52  39  61 N9        29.86F
STUTTGART      MOSUNNY   52  36  54 NW10      29.85F
MONTICELLO     SUNNY     52  38  58 VRB5      29.85F

$$





USA.gov is the U.S. government's official web portal to all federal, state and local government web resources and services.